This is the latest recevied weather packets stored in our database for station/object LZ1HCO-25. If no packets are shown the sender has not sent any weather packets the latest 10 day(s).
| Time | Temp. | Humidity | Pressure | Rain* | Wind** | Luminosity | Snow |
|---|---|---|---|---|---|---|---|
| 1777800628 | 10° C | 95% | 975 hPa | - | - | 0 W/m² | - |
| 1777800317 | 10° C | 88% | 975 hPa | - | - | 0 W/m² | - |
| 1777800005 | 10° C | 87% | 976 hPa | - | - | 0 W/m² | - |
| 1777799694 | 10.56° C | 85% | 976 hPa | - | - | 0 W/m² | - |
| 1777799383 | 11.11° C | 85% | 976 hPa | - | - | 0 W/m² | - |
| 1777799071 | 12.22° C | 81% | 975 hPa | - | - | 0 W/m² | - |
| 1777798760 | 12.22° C | 92% | 976 hPa | - | - | 0 W/m² | - |
| 1777798449 | 10.56° C | 87% | 976 hPa | - | - | 0 W/m² | - |
| 1777798137 | 10.56° C | 98% | 976 hPa | - | - | 0 W/m² | - |
| 1777797826 | 9.44° C | 99% | 976 hPa | - | - | 0 W/m² | - |
| 1777797514 | 10° C | 99% | 976 hPa | - | - | 0 W/m² | - |
| 1777797203 | 10° C | 99% | 976 hPa | - | - | 0 W/m² | - |
| 1777797069 | 10.56° C | 99% | 976 hPa | - | - | 0 W/m² | - |
| 1777796758 | 10° C | 99% | 976 hPa | - | - | 0 W/m² | - |
| 1777796446 | 9.44° C | 99% | 976 hPa | - | - | 0 W/m² | - |
| 1777796135 | 9.44° C | 99% | 976 hPa | - | - | 0 W/m² | - |
| 1777795824 | 9.44° C | 99% | 976 hPa | - | - | 0 W/m² | - |
| 1777795512 | 10.56° C | 99% | 976 hPa | - | - | 0 W/m² | - |
| 1777795201 | 9.44° C | 99% | 976 hPa | - | - | 0 W/m² | - |
| 1777794890 | 9.44° C | 99% | 976 hPa | - | - | 0 W/m² | - |
| 1777794578 | 10° C | 99% | 976 hPa | - | - | 0 W/m² | - |
| 1777794267 | 10° C | 99% | 976 hPa | - | - | 0 W/m² | - |
| 1777793955 | 10° C | 99% | 976 hPa | - | - | 0 W/m² | - |
| 1777793644 | 10.56° C | 99% | 976 hPa | - | - | 0 W/m² | - |
| 1777793333 | 9.44° C | 99% | 976 hPa | - | - | 0 W/m² | - |
* Rain since midnight (hover to see other rain measurements)
** Current wind speed in m/s (hover to see current wind gust speed)